Simultaneous Nadir Overpasses (SNOs) Predictions

Prediction of SNOs between NPP and LANDSAT-9 Satellite Orbit:

Table of predicted SNOs for the next 14.0 days since TLE Epoch: 5/4/2024
Index Date (NPP) Time (NPP) Lat,Lon (NPP) SZA (NPP ) Date (LANDSAT-9) Time (LANDSAT-9) Lat,Lon (LANDSAT-9) SZA (LANDSAT-9 ) Distance(km) Time Diff (sec)
1 05/05/2024 05:42:33 -70.62, -90.06 125.85 05/05/2024 05:43:44 -70.52, -89.08 125.97 38.07 71
2 05/05/2024 06:33:10 70.14, 78.00 53.65 05/05/2024 06:33:16 70.15, 78.02 53.65 1.21 6
3 05/05/2024 07:23:52 -70.05,-114.54 126.46 05/05/2024 07:22:46 -70.03,-114.50 126.47 2.11 66
4 05/07/2024 21:59:18 -70.22, 26.34 127.00 05/07/2024 22:00:18 -70.22, 26.35 127.01 0.62 60
5 05/07/2024 22:50:02 70.11,-166.19 52.88 05/07/2024 22:49:45 70.11,-166.16 52.88 1.37 17
6 05/07/2024 23:40:34 -69.49, 2.06 127.77 05/07/2024 23:39:24 -69.51, 0.65 127.72 54.91 70
7 05/10/2024 14:16:10 -70.15, 142.23 127.79 05/10/2024 14:16:48 -70.16, 142.15 127.77 3.49 38
8 05/10/2024 15:06:54 70.05, -50.31 52.10 05/10/2024 15:06:15 70.05, -50.37 52.11 2.32 39
9 05/13/2024 05:42:30 70.71, 89.79 52.14 05/13/2024 05:43:40 70.62, 91.06 52.02 47.94 70
10 05/13/2024 06:33:03 -70.13,-101.98 128.47 05/13/2024 06:33:17 -70.14,-102.01 128.47 1.43 14
11 05/13/2024 07:23:47 70.04, 65.48 51.42 05/13/2024 07:22:44 70.02, 65.47 51.41 1.59 63
12 05/15/2024 21:59:14 70.24,-153.68 51.02 05/15/2024 22:00:15 70.24,-153.62 51.01 2.15 61
13 05/15/2024 22:49:56 -70.13, 13.81 129.11 05/15/2024 22:49:45 -70.14, 13.87 129.10 2.65 11
14 05/15/2024 23:40:30 69.51,-177.95 50.25 05/15/2024 23:39:20 69.58,-179.26 50.35 51.50 70



Historial Predications of SNOs between NPP and LANDSAT-9
